401  
ASCA42 TJSJ 230610  
RWRPR  
PUERTO RICO/U.S. VIRGIN ISLANDS HOURLY WEATHER ROUNDUP  
NATIONAL WEATHER SERVICE SAN JUAN PR  
200 AM AST SUN SEP 23 2018  
 
PRZ001>002-007>008-010-230700-  
PUERTO RICO  
 
CITY SKY/WX TMP DP RH WIND PRES REMARKS
 
SAN JUAN LMM PTCLDY 81 75 83 SE3 29.90F  
CEIBA CLEAR 81 79 94 E6 29.92F  

 
 
VIZ001>002-230700-  
U.S. VIRGIN ISLANDS  
 
CITY SKY/WX TMP DP RH WIND PRES REMARKS
 
CHARLOTTE AMA CLEAR 81 73 78 E5 29.89F  
CHRISTIANSTED PTCLDY 79 77 94 NE5 29.90F  

 
 
HOURLY WEATHER ROUNDUP FOR THE NEWS MEDIA  
 
CITY SKY/WX TMP DP RH WIND PRES REMARKS
 
ORLANDO FAIR 78 74 87 NE3 30.01F  
NEW YORK MOCLDY 62 53 72 NE8 30.21S  
NEWARK CLOUDY 61 51 70 N9 30.21S  
CHICAGO FAIR 54 47 77 CALM 30.18F  
HARTFORD FAIR 52 51 97 CALM 30.21S  
BOSTON MOCLDY 56 42 59 N3 30.22S  
DALLAS DRIZZLE 70 69 97 NE9 29.90S FOG  
PHILADELPHIA CLOUDY 63 54 72 NE3 30.19F  
LOS ANGELES PTCLDY 66 61 84 S6 29.89S  
WASHINGTON DC CLOUDY 61 55 81 N7 30.20F  
 
CLICK HERE TO GO TO PREVIOUS BULLETINS.

The Nexlab PR Page Main Text Page